Wind_Speed
45 46 46 46 46 44 45 45 45 45 46 46 46 46 47 47 46 45 45 46 45 45 45 46 46 46 46 46 46 46 47 47 47 47 47 48 49 50 50 50 50 49 49
47 46 46 46 46 45 45 45 46 46 46 45 46 47 47 46 45 45 45 46 46 46 46 46 46 46 47 47 46 47 47 48 48 47 48 49 49 49 49 49 48 48 48
47 47 46 46 46 46 46 46 46 47 46 46 46 46 46 46 45 45 45 45 46 46 45 45 46 46 46 46 46 47 47 48 49 49 49 50 50 49 48 47 47 47 48
46 47 47 47 47 47 47 47 47 47 47 47 46 46 46 46 46 46 46 46 46 46 45 45 45 45 45 45 45 46 46 47 49 50 50 50 49 48 47 47 47 48 48
45 46 46 46 47 47 47 47 47 48 48 48 47 47 47 47 47 47 47 46 46 45 45 45 45 45 44 44 45 46 46 47 49 50 50 49 49 48 47 47 48 48 48
44 44 44 44 45 46 47 47 48 48 48 49 49 49 48 48 48 48 47 47 46 46 46 45 45 44 44 45 46 47 47 48 48 48 48 48 48 48 48 48 49 48 47
43 43 43 43 43 44 45 46 46 47 48 48 48 48 49 48 48 47 47 47 47 47 47 46 45 45 46 45 46 48 49 49 48 48 48 48 48 48 48 49 48 47 45
43 43 43 44 44 44 45 45 46 47 47 46 46 46 46 46 46 47 47 47 47 47 47 47 46 46 46 46 47 48 48 48 48 47 47 47 47 48 48 47 47 45 43
43 43 43 44 44 44 44 45 45 45 45 45 45 45 45 44 44 45 45 45 46 46 47 47 46 46 45 46 46 46 46 46 46 46 46 46 46 47 47 46 45 44 42
42 43 43 44 44 44 44 44 44 45 45 45 45 45 44 44 44 44 44 43 43 43 44 43 44 44 45 45 45 44 43 43 44 44 44 44 44 45 44 44 43 42 41
40 41 42 43 43 43 43 44 44 44 44 45 45 45 44 43 43 43 43 42 42 42 42 41 42 43 43 42 42 41 41 42 43 43 42 42 42 42 41 41 41 41 40
40 40 40 41 41 42 42 42 42 43 43 43 43 43 43 43 43 43 43 43 42 41 41 41 41 41 41 41 40 39 39 40 41 41 40 40 39 39 38 39 39 38 39
39 39 39 40 40 40 40 40 41 41 42 42 42 42 42 43 43 43 42 42 41 41 40 41 41 40 39 39 39 39 40 41 40 40 39 38 37 37 37 37 37 37 37
38 39 39 39 40 40 40 40 40 40 40 40 41 41 42 42 41 41 41 41 40 40 40 40 40 39 39 38 38 39 39 40 39 38 38 37 37 37 37 37 37 36 36
36 37 38 38 39 39 39 38 38 38 38 38 39 39 40 40 40 40 40 40 40 40 40 39 38 38 37 37 37 38 39 39 38 38 37 37 37 36 37 37 36 36 35
33 35 36 37 37 37 37 36 36 36 36 36 37 37 37 38 38 39 38 38 38 37 37 37 36 36 36 36 37 37 37 37 36 35 35 36 35 34 35 35 34 33 32
32 33 34 34 34 34 35 35 35 35 35 35 34 34 34 35 36 36 36 36 36 35 35 35 34 34 35 36 36 36 35 34 33 33 33 33 33 32 32 32 31 30 29
31 32 32 32 32 32 32 33 33 33 33 33 33 32 32 33 33 33 33 33 33 34 34 34 34 35 35 35 34 34 33 32 31 31 30 30 30 30 29 28 28 27 26
31 31 32 32 32 31 31 31 31 31 31 31 31 31 31 31 31 31 30 30 30 30 31 31 32 33 33 33 32 31 31 30 30 30 29 29 29 27 26 26 25 25 25
30 31 30 30 31 31 31 31 31 30 30 30 30 29 29 29 30 30 30 29 29 29 29 29 30 30 29 29 28 28 27 27 27 27 27 27 26 25 24 23 23 23 24
29 29 29 29 29 30 29 29 29 28 28 27 27 27 28 28 28 28 28 28 28 28 28 28 27 27 27 26 26 25 25 25 25 25 25 24 23 22 21 21 21 21 21
29 28 28 28 28 28 27 26 26 26 26 26 26 26 26 26 26 26 26 25 26 26 26 26 26 25 24 23 23 23 23 23 23 22 22 21 21 20 19 19 19 19 18
26 26 26 26 25 24 24 24 24 24 24 24 24 24 24 24 24 24 24 24 24 24 24 24 23 23 23 22 22 22 21 21 20 20 20 19 19 18 18 18 17 17 16
23 23 24 24 24 23 22 23 23 23 22 22 22 23 23 23 23 23 23 23 23 23 23 22 22 22 22 21 21 20 19 18 18 18 18 17 16 16 15 15 15 15 15
21 22 22 22 22 22 22 22 22 23 23 23 23 22 22 22 22 22 22 22 22 21 21 21 21 21 20 19 18 18 17 17 16 16 15 14 14 13 13 13 13 13 13
21 21 22 22 21 21 22 22 22 22 22 22 22 22 21 21 21 21 20 20 20 20 19 19 19 18 17 17 16 16 16 16 15 14 13 12 12 11 11 11 11 11 10
Wind_Direction
250 251 252 254 255 257 257 258 259 261 263 264 265 268 269 271 273 274 274 275 276 276 277 278 278 278 279 280 280 281 283 284 285 287 289 291 292 293 293 294 295 295 294
251 252 253 254 256 257 259 260 261 262 263 264 265 268 269 272 273 273 274 275 275 276 277 279 279 279 280 280 280 281 283 284 285 287 289 291 292 293 293 294 294 295 295
252 254 255 256 257 258 260 262 262 263 263 265 266 267 269 271 272 274 275 276 275 275 278 279 280 280 280 280 280 281 282 284 285 287 289 291 292 293 293 294 294 294 295
253 254 256 257 258 259 261 262 262 262 263 265 266 268 269 270 271 273 274 275 275 275 277 279 280 280 280 281 280 281 283 284 285 287 289 292 292 292 292 293 293 294 294
253 255 257 258 258 259 260 261 261 262 264 266 267 268 269 270 271 273 274 274 275 276 277 278 280 280 281 282 281 282 284 285 286 287 289 291 291 291 291 293 294 294 294
254 255 257 257 258 259 260 261 261 263 265 266 268 269 269 270 272 273 274 274 275 275 277 279 280 281 282 282 283 284 285 287 288 289 290 291 290 291 291 293 293 294 294
254 255 256 257 258 260 260 260 263 265 266 268 269 270 270 270 271 272 273 275 276 276 277 279 280 281 282 283 283 284 286 288 289 289 290 290 290 291 292 293 294 295 294
255 255 256 257 259 260 262 263 264 265 266 268 268 270 271 271 271 272 274 274 275 276 277 279 280 280 281 282 284 285 286 288 289 289 290 290 290 290 292 292 293 293 293
255 256 257 258 260 261 263 264 265 266 267 267 268 269 270 271 272 273 274 275 275 276 278 279 280 280 281 283 284 285 286 287 288 289 289 290 290 291 292 292 292 292 292
255 256 258 259 261 262 263 264 266 266 267 267 268 269 270 271 272 273 274 275 276 277 279 280 280 281 281 282 283 284 285 286 287 289 289 290 291 292 292 293 292 291 292
256 257 258 260 261 262 264 265 265 266 266 267 268 269 270 271 272 273 274 276 277 277 278 278 279 281 282 282 283 284 285 286 287 288 289 290 290 291 291 291 292 293 293
256 257 259 260 261 262 264 265 265 265 266 267 268 269 269 270 271 273 275 276 277 277 278 278 279 281 282 282 283 284 285 287 288 289 291 292 292 291 291 291 291 292 293
257 257 258 259 261 263 264 265 265 266 267 267 268 268 270 271 271 273 274 275 276 277 277 278 279 280 282 282 282 284 285 286 287 288 290 291 291 292 292 292 292 293 294
258 258 258 260 261 262 262 264 265 266 267 267 268 269 270 271 271 271 272 274 276 277 278 278 279 279 280 281 282 284 286 287 287 288 290 290 290 291 291 292 292 292 293
259 258 259 260 261 261 262 264 265 265 267 268 269 269 270 270 270 271 272 274 275 277 277 278 278 278 279 281 283 285 287 287 287 289 290 290 290 290 291 292 292 293 293
260 260 260 260 261 261 262 263 264 266 267 269 270 270 270 270 270 271 273 275 276 276 276 278 278 278 280 282 284 286 287 287 288 290 290 290 291 291 292 292 292 293 293
262 262 261 260 260 261 262 264 265 266 267 268 270 270 270 271 272 272 273 274 275 276 276 277 277 278 280 282 284 285 286 286 287 289 291 291 292 292 293 292 292 292 293
262 262 261 260 260 260 261 264 265 266 266 267 268 269 270 271 272 272 273 274 275 276 277 278 279 280 281 283 283 283 283 284 286 289 290 291 292 293 293 292 292 292 293
263 262 260 259 259 259 261 264 266 265 265 266 267 268 269 271 272 273 274 275 276 278 280 280 281 281 282 282 282 282 282 283 286 289 290 291 292 292 293 294 294 293 294
263 261 259 258 259 259 260 262 264 265 265 266 267 269 269 271 273 274 274 274 276 279 281 281 282 282 282 282 281 282 282 284 286 288 289 290 291 291 292 293 295 296 297
262 259 257 258 259 261 262 263 263 264 264 265 266 267 269 271 272 273 273 274 276 278 280 281 280 281 282 281 282 284 284 285 286 287 287 288 289 291 292 293 295 297 299
262 261 260 260 260 260 260 260 261 261 261 263 264 267 270 271 271 271 273 275 277 279 281 281 281 281 281 282 283 284 283 284 287 287 286 288 289 289 291 293 296 300 301
260 259 259 257 256 257 258 258 258 258 259 261 263 265 269 272 272 273 274 275 277 279 280 280 280 280 280 281 283 282 282 284 285 284 285 286 287 288 290 293 295 298 301
257 256 255 255 254 254 256 257 257 257 258 260 262 266 270 273 274 275 274 274 276 278 279 279 279 279 279 280 280 281 281 282 283 284 285 284 286 288 291 294 297 299 302
255 254 253 253 252 253 255 256 258 258 259 261 263 266 270 272 274 276 275 275 276 277 277 278 278 278 278 277 277 278 279 281 283 284 284 285 287 290 293 296 299 301 304
255 255 255 254 254 254 254 255 257 259 260 261 263 266 268 270 273 276 277 277 276 275 275 277 276 275 273 274 276 277 277 278 280 280 278 280 284 288 293 297 299 301 303
Height
5702 5704 5706 5708 5709 5711 5713 5714 5715 5717 5718 5718 5719 5719 5719 5719 5718 5718 5717 5716 5715 5714 5712 5711 5710 5708 5706 5705 5703 5701 5699 5696 5695 5693 5689 5685 5681 5677 5672 5668 5663 5659 5654
5691 5693 5695 5697 5699 5701 5702 5703 5704 5705 5706 5707 5707 5708 5708 5707 5707 5706 5705 5705 5704 5703 5702 5700 5699 5697 5695 5693 5692 5690 5687 5684 5682 5680 5678 5674 5670 5665 5660 5656 5651 5646 5642
5681 5683 5685 5687 5688 5690 5691 5693 5694 5694 5695 5696 5696 5696 5696 5696 5696 5695 5694 5693 5692 5691 5691 5689 5687 5685 5684 5682 5680 5678 5675 5673 5670 5668 5665 5662 5657 5653 5648 5644 5639 5635 5630
5670 5672 5674 5676 5678 5679 5680 5682 5683 5683 5684 5684 5684 5684 5684 5684 5684 5684 5683 5682 5681 5680 5679 5678 5676 5674 5672 5670 5668 5666 5663 5661 5658 5655 5653 5649 5645 5641 5636 5632 5628 5623 5618
5659 5661 5663 5665 5666 5668 5669 5670 5671 5672 5673 5673 5673 5673 5673 5673 5672 5672 5671 5671 5670 5669 5668 5666 5664 5662 5660 5658 5656 5654 5651 5648 5646 5643 5640 5636 5632 5629 5625 5620 5616 5612 5607
5648 5650 5652 5653 5655 5656 5658 5658 5659 5660 5661 5661 5661 5661 5661 5661 5660 5660 5659 5659 5658 5657 5656 5655 5653 5651 5648 5647 5644 5642 5639 5636 5633 5630 5627 5623 5620 5616 5612 5607 5603 5600 5596
5637 5639 5641 5642 5644 5645 5646 5647 5648 5648 5649 5649 5649 5649 5649 5648 5648 5648 5647 5646 5646 5645 5644 5643 5641 5639 5637 5635 5633 5630 5627 5623 5620 5617 5614 5611 5607 5604 5600 5595 5591 5586 5583
5627 5629 5630 5631 5633 5633 5634 5635 5636 5636 5637 5637 5637 5637 5637 5636 5636 5635 5635 5634 5633 5633 5632 5630 5629 5627 5625 5623 5621 5618 5615 5612 5609 5605 5602 5599 5594 5590 5587 5583 5578 5575 5571
5616 5617 5619 5620 5621 5622 5623 5624 5624 5625 5625 5625 5625 5625 5625 5625 5624 5623 5622 5622 5621 5621 5619 5618 5616 5615 5613 5610 5608 5606 5603 5600 5596 5593 5589 5586 5582 5579 5574 5570 5567 5564 5561
5605 5606 5607 5609 5610 5611 5611 5612 5612 5613 5613 5613 5614 5614 5613 5613 5613 5612 5611 5610 5610 5609 5608 5606 5604 5603 5600 5598 5595 5593 5591 5588 5585 5582 5578 5574 5571 5567 5563 5559 5556 5552 5549
5593 5595 5596 5597 5598 5599 5600 5600 5601 5601 5602 5602 5602 5602 5602 5602 5602 5601 5600 5599 5598 5598 5596 5595 5593 5591 5588 5586 5583 5581 5579 5576 5574 5570 5567 5563 5560 5556 5552 5549 5545 5541 5538
5583 5584 5585 5586 5586 5587 5588 5588 5589 5589 5590 5590 5591 5591 5590 5590 5590 5589 5589 5588 5587 5586 5585 5584 5582 5579 5577 5575 5573 5571 5568 5565 5562 5559 5556 5553 5549 5546 5542 5539 5535 5531 5528
5571 5572 5573 5574 5575 5576 5577 5577 5577 5578 5578 5579 5579 5579 5579 5579 5579 5578 5577 5576 5575 5574 5573 5572 5570 5568 5566 5564 5562 5560 5557 5555 5552 5549 5546 5543 5540 5536 5532 5529 5525 5522 5518
5560 5561 5562 5563 5564 5565 5565 5566 5566 5567 5567 5567 5568 5568 5567 5567 5567 5566 5566 5565 5564 5563 5562 5560 5559 5557 5556 5554 5552 5550 5547 5544 5541 5538 5535 5532 5529 5526 5523 5519 5516 5513 5510
5549 5550 5551 5552 5553 5553 5554 5555 5555 5556 5556 5557 5556 5556 5556 5556 5555 5555 5554 5554 5553 5552 5550 5549 5548 5547 5545 5543 5542 5539 5537 5534 5531 5528 5525 5522 5519 5516 5513 5510 5507 5504 5501
5538 5539 5540 5541 5542 5543 5544 5544 5544 5545 5545 5545 5545 5545 5545 5545 5544 5544 5543 5543 5542 5541 5539 5538 5537 5536 5535 5533 5531 5529 5526 5524 5521 5518 5516 5513 5510 5507 5504 5501 5498 5495 5492
5528 5529 5530 5530 5531 5532 5533 5534 5534 5535 5535 5535 5535 5535 5535 5534 5534 5533 5533 5532 5531 5530 5529 5528 5527 5526 5525 5523 5521 5519 5517 5514 5512 5509 5507 5504 5501 5498 5495 5492 5489 5487 5484
5518 5519 5520 5520 5521 5522 5523 5524 5524 5525 5525 5525 5525 5525 5525 5525 5524 5523 5523 5522 5522 5521 5520 5518 5517 5516 5515 5513 5511 5509 5507 5505 5503 5501 5498 5496 5493 5490 5487 5485 5482 5479 5477
5509 5509 5510 5511 5511 5512 5513 5514 5514 5515 5515 5515 5515 5515 5515 5515 5514 5514 5514 5513 5512 5511 5510 5509 5508 5506 5505 5503 5502 5500 5498 5497 5495 5493 5490 5488 5486 5483 5480 5478 5475 5473 5471
5499 5500 5500 5501 5502 5503 5504 5505 5505 5506 5506 5506 5506 5507 5506 5506 5506 5506 5505 5504 5504 5503 5502 5501 5499 5498 5496 5495 5493 5492 5491 5489 5487 5485 5483 5481 5479 5477 5474 5472 5469 5467 5464
5490 5490 5491 5492 5493 5494 5495 5496 5496 5497 5497 5497 5498 5498 5498 5498 5497 5497 5497 5496 5495 5494 5493 5492 5491 5490 5488 5487 5486 5485 5483 5482 5480 5478 5477 5475 5473 5471 5468 5466 5464 5462 5459
5481 5482 5482 5483 5484 5485 5486 5487 5488 5488 5489 5489 5490 5490 5490 5489 5489 5489 5488 5488 5487 5486 5485 5484 5483 5482 5481 5480 5479 5478 5476 5475 5473 5472 5470 5469 5467 5465 5463 5461 5459 5457 5455
5472 5473 5474 5475 5476 5477 5478 5479 5480 5481 5482 5482 5482 5482 5482 5482 5482 5481 5481 5480 5479 5479 5478 5477 5476 5475 5474 5473 5472 5471 5470 5469 5467 5466 5465 5463 5462 5460 5458 5457 5455 5453 5450
5464 5465 5466 5467 5468 5470 5471 5472 5473 5474 5474 5475 5475 5475 5475 5475 5474 5474 5473 5473 5472 5471 5470 5470 5469 5468 5467 5467 5466 5465 5464 5463 5462 5461 5459 5458 5457 5455 5454 5452 5450 5449 5447
5457 5458 5459 5460 5461 5463 5464 5465 5466 5466 5467 5468 5468 5468 5468 5468 5467 5467 5466 5465 5465 5464 5463 5463 5462 5461 5461 5460 5460 5459 5458 5458 5457 5456 5455 5454 5453 5451 5450 5449 5447 5445 5444
5450 5451 5452 5453 5455 5456 5457 5458 5459 5459 5460 5460 5461 5461 5461 5461 5461 5460 5459 5459 5458 5458 5457 5456 5456 5455 5455 5455 5454 5454 5453 5452 5452 5451 5450 5450 5449 5448 5447 5445 5444 5442 5441